Find Starlink 6047

NORAD ID: 56460 Int'l Des: 2023-064 Owner: SPXS Country: US Constellation: starlink operational
LEOCIRCULAR

リアルタイム位置

3D地球を読み込み中...

Starlink 6047について

説明を読み込み中...

次回通過

Passes for default location (London). Set your location on the main map for personalized predictions.

高度履歴

Loading altitude history...

軌道要素

1 56460U 23064N 26125.81077056 .00001275 00000-0 11461-3 0 9997
2 56460 70.0001 0.3776 0002944 271.4161 88.6660 14.98335630163809
Epoch: May 5, 2026 • Age: 13 hours

現在のステータス

高度 574.9 km
速度 7.57 km/s
衛星直下点 -3.80°S, 9.57°E
打ち上げ日 May 10, 2023
運用期間 2.9 years
タイプ internet

技術仕様

分類 Payload
質量 305.00 kg
乾燥質量 290.00 kg
総質量 305.00 kg
長さ 0.20 m
直径 2.80 m
スパン 9.00 m
形状 Box + pan
製造者 SPXS
バスタイプ Starlink
フェーズステータス In Orbit
所有者/国 SPXS/US

Most Searched